STARLINK-32475, 61728

Orbit data source: Space-Track

STARLINK-32475, 61728 is a payload satellite owned by SpaceX/Seattle (US) in LEO that was launched on Wed, 30 Oct 2024 UTC via an FALCON 9 launch vehicle from the Air Force Eastern Test Range (AFETR). Payload-class satellites include a variety of spacecraft equipped with specific instruments for various scientific and technological missions. These include communications satellites like Starlink; space stations such as the ISS; scientific satellites like the Hubble; Earth observation satellites from companies like Planet Labs, Umbra, and HawkEye 360; GPS; miniature CubeSats for education and research; and military/defense satellites.

Loading next visibility...
Identifier
61728, 2024-196X
Orbit
LEO
Last TLE update
17 hours ago
Origin
Manufacturer
SpaceX/Seattle
Mission
Operational Commercial Communications
Bus & Motor
STARLINK V2M, Unknown motor
Mass
730 kg wet, ~700 kg dry
Launch date (UTC)
2024-10-30 (8 months ago)
Launch vehicle
FALCON 9
Launch site
Air Force Eastern Test Range (AFETR)
Object type
Payload
Rocket body
Debris
Shape & HBR
Box + 2 Pan, 29 m
Radar Cross Section
36.964 m², Large (>1 m²)

Expand to show TLE details & history

TLE from 17 hours ago
0 STARLINK-32475
1 61728U 24196X   25187.23076951 -.00004232  00000-0 -13101-3 0  9994
2 61728  53.1593 166.0419 0001027  55.9181 304.1917 15.30161883 39427
Epoch: 2025-07-06T05:32Z
TLE epoch observation values (Epoch: 2025-07-06T05:32:18.485Z)
Latitude
-0.00004°
Longitude
158.50741°
Altitude
475.833 km
Speed
7.629 km/s
True Right ascension
11h 04m 10s
True Declination
0° 00' 00"
Sunlit
Object was in daylight at epoch
Visualization orbit readout
Latitude
40.80738°
Longitude
-164.83912°
Altitude
478.404 km
Speed
7.632 km/s
Apparent Right ascension
17h 56m 06s
Apparent Declination
6° 49' 08"
Sunlit
Object is in daylight
Visualization observer readout
Local Sidereal Time
11:01:21
Azimuth
75.928° E
Elevation
-5.97°
Doppler factor
1
Orbital elements
Apogee altitude
476.289 km
Perigee altitude
474.882 km
Semi-major axis
6,853.722 km
Eccentricity
0.0001
Inclination
53.1593°
RAAN
166.0419°
Arg. of periapsis
55.9181°
True anomaly
Unknown
Mean anomaly
304.1917°
Eccentric anomaly
Unknown
Mean motion
3.82519 °/min
Orbital period
94.11 mins
BSTAR
-0.00013101
Loading maneuver chart data...
Loading SW <> Apogee altitude chart data...
Loading historical data...
Loading historical data...
Loading historical data...
Loading historical data...
Loading historical data...
Loading historical data...
Loading historical data...

STARLINK-32475 Visibility forecast

Observer location: undefined°, undefined°

Span
Click to sort rows by Start time (UTC) header in descending order
Start Az.
Max El. time (UTC)
Max El. Az.
Max El.
End time (UTC)
End Az.
6 mins2025-07-07 00:30:08.031Z189.909° SSW2025-07-07 00:33:08.031Z128.514° SE25.559°2025-07-07 00:36:08.031Z71.469° E
5 mins2025-07-07 02:09:08.031Z277.227° WNW2025-07-07 02:11:08.031Z338.198° N29.603°2025-07-07 02:14:08.031Z34.986° NE
4 mins2025-07-07 07:06:08.031Z345.539° N2025-07-07 07:08:08.031Z40.42° NE25.895°2025-07-07 07:10:08.031Z83.636° E
5 mins2025-07-07 08:44:08.031Z276.825° WNW2025-07-07 08:46:08.031Z211.454° SW30.234°2025-07-07 08:49:08.031Z158.905° S
|